Shelbyville, IN

6:37 AM EST on January 17, 2018 (GMT -0500)
Shelbyville Municipal

Weather History for KGEZ - September, 2012

Change the Weather History Date:

Thursday, September 6, 2012

  Actual Average Record
Temperature  
Mean Temperature 75 °F 69 °F  
Max Temperature 86 °F 81 °F 93 °F (2015)
Min Temperature 64 °F 57 °F 46 °F (2017)
Degree Days  
Heating Degree Days 0 1  
Month to date heating degree days 0 3  
Since 1 July heating degree days 0 9  
Cooling Degree Days 10 5  
Month to date cooling degree days 74 32  
Year to date cooling degree days 1377 838  
Growing Degree Days 24 (Base 50)    
Moisture  
Dew Point 67 °F    
Average Humidity 81    
Maximum Humidity 100    
Minimum Humidity 61    
Precipitation  
Precipitation 0.00 in 0.11 in 0.02 in (2017)
Month to date precipitation 1.61 0.60  
Year to date precipitation 18.33 30.88  
Sea Level Pressure  
Sea Level Pressure 29.90 in    
Wind  
Wind Speed 4 mph (SSW)    
Max Wind Speed 13 mph    
Max Gust Speed 18 mph    
Visibility 4 miles    
Events Fog    
T = Trace of Precipitation, MM = Missing Value Source: NWS Daily Summary

Daily Weather History Graph

Daily Weather History Graph

Search for Another Location

Airport or City:

Trip Planner

Search our weather history database for the weather conditions in past years. The results will help you decide how hot, cold, wet, or windy it might be!

Date:

Astronomy

Sep. 06, 2012 Rise Set
Actual Time 7:16 AM EDT 8:05 PM EDT
Civil Twilight 6:49 AM EDT 8:32 PM EDT
Nautical Twilight 6:16 AM EDT 9:05 PM EDT
Astronomical Twilight 5:43 AM EDT 9:38 PM EDT
Moon 11:17 PM EDT (9/6) 1:13 PM EDT (9/6)
Length of Visible Light 13h 43m
Length of Day
12h 49m
Waning Gibbous, 67% of the Moon is Illuminated
Sep 6
Waning Gibbous
Sep 8
Last Quarter
Sep 15
New
Sep 22
First Quarter
Sep 29
Full

Hourly Weather History & Observations

Time (EDT) Temp. Heat Index Dew Point Humidity Pressure Visibility Wind Dir Wind Speed Gust Speed Precip Events Conditions
12:33 AM 66.2 °F - 64.4 °F 94% 29.87 in 2.0 mi Calm Calm - N/A   Clear
12:48 AM 66.2 °F - 64.4 °F 94% 29.87 in 1.5 mi West 3.5 mph - N/A   Clear
12:53 AM 66.0 °F - 64.9 °F 96% 29.85 in 2.0 mi Calm Calm - N/A   Clear
12:59 AM 64.4 °F - 62.6 °F 94% 29.87 in 0.8 mi Calm Calm - N/A   Clear
1:06 AM 64.4 °F - 64.4 °F 100% 29.87 in 0.5 mi South 4.6 mph - N/A Fog Fog
1:28 AM 64.4 °F - 64.4 °F 100% 29.87 in 0.2 mi SE 5.8 mph - N/A Fog Fog
1:38 AM 66.2 °F - 64.4 °F 94% 29.87 in 1.0 mi SSE 5.8 mph - N/A   Mist
1:41 AM 66.2 °F - 64.4 °F 94% 29.87 in 2.0 mi SSE 4.6 mph - N/A   Mostly Cloudy
1:43 AM 66.2 °F - 64.4 °F 94% 29.87 in 3.0 mi SSE 3.5 mph - N/A   Scattered Clouds
1:53 AM 64.9 °F - 64.9 °F 100% 29.86 in 3.0 mi South 4.6 mph - N/A   Partly Cloudy
2:07 AM 64.4 °F - 64.4 °F 100% 29.88 in 1.8 mi SSE 4.6 mph - 0.01 in   Partly Cloudy
2:13 AM 64.4 °F - 64.4 °F 100% 29.88 in 0.2 mi SSE 3.5 mph - 0.01 in Fog Fog
2:53 AM 66.0 °F - 64.9 °F 96% 29.87 in 0.2 mi South 4.6 mph - 0.01 in Fog Fog
3:53 AM 66.0 °F - 66.0 °F 100% 29.87 in 0.2 mi South 3.5 mph - N/A Fog Fog
4:38 AM 66.2 °F - 64.4 °F 94% 29.89 in 0.5 mi South 3.5 mph - N/A Fog Fog
4:53 AM 64.9 °F - 64.9 °F 100% 29.88 in 0.8 mi South 4.6 mph - N/A   Mist
5:08 AM 64.4 °F - 64.4 °F 100% 29.89 in 0.2 mi SSW 4.6 mph - N/A Fog Fog
5:28 AM 64.4 °F - 64.4 °F 100% 29.90 in 0.2 mi Calm Calm - N/A Fog Fog
5:48 AM 66.2 °F - 64.4 °F 94% 29.90 in 0.5 mi Calm Calm - N/A Fog Fog
5:53 AM 66.0 °F - 64.9 °F 96% 29.89 in 0.5 mi Calm Calm - N/A Fog Fog
6:17 AM 66.2 °F - 66.2 °F 100% 29.91 in 0.2 mi Calm Calm - N/A Fog Fog
6:53 AM 66.9 °F - 66.0 °F 97% 29.90 in 0.2 mi WSW 3.5 mph - N/A Fog Fog
7:53 AM 66.9 °F - 66.0 °F 97% 29.92 in 0.2 mi SSW 3.5 mph - N/A Fog Fog
8:26 AM 68.0 °F - 66.2 °F 94% 29.94 in 0.5 mi SW 3.5 mph - 0.01 in Fog Fog
8:33 AM 68.0 °F - 66.2 °F 94% 29.94 in 0.2 mi WSW 4.6 mph - 0.01 in Fog Fog
8:45 AM 68.0 °F - 66.2 °F 94% 29.94 in 0.5 mi SW 4.6 mph - 0.01 in Fog Fog
8:53 AM 68.0 °F - 66.9 °F 96% 29.93 in 0.5 mi Calm Calm - 0.01 in Fog Fog
9:53 AM 69.1 °F - 68.0 °F 96% 29.95 in 0.8 mi Calm Calm - N/A   Overcast
10:09 AM 69.8 °F - 68.0 °F 94% 29.96 in 1.0 mi Calm Calm - N/A   Overcast
10:53 AM 70.0 °F - 69.1 °F 97% 29.96 in 1.5 mi SW 3.5 mph - N/A   Overcast
11:11 AM 69.8 °F - 69.8 °F 100% 29.97 in 2.0 mi SW 3.5 mph - N/A   Overcast
11:30 AM 71.6 °F - 69.8 °F 94% 29.97 in 3.0 mi SW 3.5 mph - N/A   Overcast
11:53 AM 71.1 °F - 70.0 °F 96% 29.96 in 4.0 mi Calm Calm - N/A   Overcast
12:31 PM 75.2 °F - 71.6 °F 89% 29.96 in 6.0 mi SSW 4.6 mph - N/A   Haze
12:53 PM 78.1 °F - 70.0 °F 76% 29.94 in 8.0 mi Variable 5.8 mph - N/A   Scattered Clouds
1:53 PM 81.0 °F 84.9 °F 71.1 °F 72% 29.93 in 10.0 mi SSW 6.9 mph - N/A   Clear
2:16 PM 82.4 °F 87.2 °F 71.6 °F 70% 29.95 in 10.0 mi WSW 5.8 mph - N/A   Mostly Cloudy
2:39 PM 82.4 °F 86.3 °F 69.8 °F 66% 29.94 in 10.0 mi SSW 5.8 mph - N/A   Partly Cloudy
2:53 PM 82.9 °F 87.5 °F 71.1 °F 67% 29.92 in 10.0 mi South 4.6 mph - N/A   Scattered Clouds
3:53 PM 84.9 °F 90.1 °F 71.1 °F 63% 29.91 in 10.0 mi South 10.4 mph - N/A   Partly Cloudy
4:53 PM 84.9 °F 89.4 °F 70.0 °F 61% 29.88 in 10.0 mi South 10.4 mph - N/A   Clear
5:53 PM 84.9 °F 89.4 °F 70.0 °F 61% 29.86 in 10.0 mi South 10.4 mph - N/A   Partly Cloudy
6:53 PM 84.0 °F 88.4 °F 70.0 °F 63% 29.88 in 10.0 mi South 8.1 mph - N/A   Clear
7:53 PM 81.0 °F 84.9 °F 71.1 °F 72% 29.89 in 10.0 mi South 8.1 mph - N/A   Clear
8:53 PM 78.1 °F - 71.1 °F 79% 29.90 in 10.0 mi South 5.8 mph - N/A   Clear
9:53 PM 75.0 °F - 70.0 °F 84% 29.90 in 10.0 mi South 4.6 mph - N/A   Clear
10:53 PM 73.9 °F - 70.0 °F 87% 29.90 in 10.0 mi Calm Calm - N/A   Clear
11:53 PM 72.0 °F - 69.1 °F 91% 29.89 in 8.0 mi Calm Calm - N/A   Clear